GLOBALSTAR M078 [+]

Last updated on Fri Dec 29 2023 00:02:57 GMT+0000 (Coordinated Universal Time)

1 39076U 13005E 23361.74155833 -.00000121 00000+0 -96441-4 0 9998 2 39076 51.9841 151.8156 0001798 88.6700 271.4372 12.62258664502258
UTC large
Height (km)
Speed (km/s)
/
Latitude / Longitude
Inclination (degrees)
Orbital Period (minutes)
Azimuth
Elevation
Range (km)
Doppler Factor

Next 0 passes for location: London (51.5072 / 0.1276)

Sorry there are no passes over London.